Location: Newark
(25.6108°S, 54.5803°W)
Time: 13:16:26
(UTC+00:00)

Courier 1B Rocket - Pass Details

Date: 04 November 2020
Orbit: 920 x 1202 km, 28.2° (Epoch: 01 December)

Event Time Altitude Azimuth Distance (km) Brightness Sun altitude
Rises 08:02:57 0° 277° (W) 4,085 - -10.2°
Exits shadow 08:05:47 10° 275° (W) 3,124 7.0 -9.6°
Reaches altitude 10° 08:05:50 10° 275° (W) 3,105 7.0 -9.6°
Maximum altitude 08:13:36 79° 189° (S) 1,165 5.5 -8.0°
Drops below altitude 10° 08:20:54 10° 102° (ESE) 2,932 9.2 -6.5°
Sets 08:23:34 0° 100° (E) 3,846 10.3 -5.9°
